SCP
0 0 0 0 0 0 0 0 0 0 0 0 0 0 0 0 0 0 0 0 0 0 0 0 0 0 0 0 0 0 0 0 0 0 0 0 0 0 0 0 0 0 0
0 0 0 0 0 0 0 0 0 0 0 0 0 0 0 0 0 0 0 0 0 0 0 0 0 0 0 0 0 0 0 0 0 0 0 0 0 0 0 0 0 0 0
0 0 0 0 0 0 0 0 0 0 0 0 0 0 0 0 0 0 0 0 0 0 0 0 0 0 0 0 0 0 0 0 0 0 0 0 0 0 0 0 0 0 0
0 0 0 0 0 0 0 0 0 0 0 0 0 0 0 0 0 0 0 0 0 0 0 0 0 0 0 0 0 0 0 0 0 0 0 0 0 0 0 0 0 0 0
0 0 0 0 0 0 0 0 0 0 0 0 0 0 0 0 0 0 0 0 0 0 0 0 0 0 0 0 0 0 0 0 0 0 0 0 0 0 0 0 0 0 0
0 0 0 0 0 0 0 0 0 0 0 0 0 0 0 0 0 0 0 0 0 0 0 0 0 0 0 0 0 0 0 0 0 0 0 0 0 0 0 0 0 0 0
0 0 0 0 0 0 0 0 0 0 0 0 0 0 0 0 0 0 0 0 0 0 0 0 0 0 0 0 0 0 0 0 0 0 0 0 0 0 0 0 0 0 0
0 0 0 0 0 0 0 0 0 0 0 0 0 0 0 0 0 0 0 0 0 0 0 0 0 0 0 0 0 0 0 0 0 0 0 0 0 0 0 0 0 0 0
0 0 0 0 0 0 0 0 0 0 0 0 0 0 0 0 0 0 0 0 0 0 0 0 0 0 0 0 0 0 0 0 0 0 0 0 0 0 0 0 0 0 0
0 0 0 0 0 0 0 0 0 0 0 0 0 0 0 0 0 0 0 0 0 0 0 0 0 0 0 0 0 0 0 0 0 0 0 0 0 0 0 0 0 0 0
0 0 0 0 0 0 0 0 0 0 0 0 0 0 0 0 0 0 0 0 0 0 0 0 0 0 0 0 0 0 0 0 0 0 0 0 0 0 0 0 0 0 0
0 0 0 0 0 0 0 0 0 0 0 0 0 0 0 0 0 0 0 0 0 0 0 0 0 0 0 0 0 0 0 0 0 0 0 0 0 0 0 0 0 0 0
0 0 0 0 0 0 0 0 0 0 0 0 0 0 0 0 0 0 0 0 0 0 0 0 0 0 0 0 0 0 0 0 0 0 0 0 0 0 0 0 0 0 0
0 0 0 0 0 0 0 0 0 0 0 0 0 0 0 0 0 0 0 0 0 0 0 0 0 0 0 0 0 0 0 0 0 0 0 0 0 0 0 0 0 0 0
0 0 0 0 0 0 0 0 0 0 0 0 0 0 0 0 0 0 0 0 0 0 0 0 0 0 0 0 0 0 0 0 0 0 0 0 0 0 0 0 0 0 0
0 0 0 0 0 0 0 0 0 0 0 0 0 0 0 0 0 0 0 0 0 0 0 0 0 0 0 0 0 0 0 0 0 0 0 0 0 0 0 0 0 0 0
0 0 0 0 0 0 0 0 0 0 0 0 0 0 0 0 0 0 0 0 0 0 0 0 0 0 0 0 0 0 0 0 0 0 0 0 0 0 0 0 0 0 0
0 0 0 0 0 0 0 0 0 0 0 0 0 0 0 0 0 0 0 0 0 0 0 0 0 0 0 0 0 0 0 0 0 0 0 0 0 0 0 0 0 0 0
0 0 0 0 0 0 0 0 0 0 0 0 0 0 0 0 0 0 0 0 0 0 0 0 0 0 0 0 0 0 0 0 0 0 0 0 0 0 0 0 0 0 0
0 0 0 0 0 0 0 0 0 0 0 0 0 0 0 0 0 0 0 0 0 0 0 0 0 0 0 0 0 0 0 0 0 0 0 0 0 0 0 0 0 0 0
0 0 0 0 0 0 0 0 0 0 0 0 0 0 0 0 0 0 0 0 0 0 0 0 0 0 0 0 0 0 0 0 0 0 0 0 0 0 0 0 0 0 0
0 0 0 0 0 0 0 0 0 0 0 0 0 0 0 0 0 0 0 0 0 0 0 0 0 0 0 0 0 0 0 0 0 0 0 0 0 0 0 0 0 0 0
0 0 0 0 0 0 0 0 0 0 0 0 0 0 0 0 0 0 0 0 0 0 0 0 0 0 0 0 0 0 0 0 0 0 0 0 0 0 0 0 0 0 0
0 0 0 0 0 0 0 0 0 0 0 0 0 0 0 0 0 0 0 0 0 0 0 0 0 0 0 0 0 0 0 0 0 0 0 0 0 0 0 0 0 0 0
0 0 0 0 0 0 0 0 0 0 0 0 0 0 0 0 0 0 0 0 0 0 0 0 0 0 0 0 0 0 0 0 0 0 0 0 0 0 0 0 0 0 0
0 0 0 0 0 0 0 0 0 0 0 0 0 0 0 0 0 0 0 0 0 0 0 0 0 0 0 0 0 0 0 0 0 0 0 0 0 0 0 0 0 0 0
Wind_Speed
2 2 2 2 2 2 3 3 3 3 4 4 4 4 4 4 4 3 3 3 3 3 3 3 4 3 2 2 2 2 3 3 3 3 2 1 1 2 2 2 2 3 3
1 2 2 2 3 3 4 4 4 4 4 4 4 4 4 4 4 3 4 3 3 3 4 3 4 3 3 3 2 3 3 4 4 3 2 1 2 3 3 3 3 3 3
2 2 3 3 3 3 4 4 4 4 4 4 4 4 4 5 4 4 4 4 3 3 3 3 4 3 3 3 3 3 3 3 3 3 3 2 1 2 2 2 2 2 3
2 3 3 3 3 3 4 4 4 4 4 5 4 4 4 5 4 4 4 4 4 4 3 3 3 3 4 4 3 4 3 3 3 3 2 2 2 2 2 2 2 2 2
2 2 2 2 3 3 4 4 4 5 5 5 4 5 5 4 5 5 4 4 4 4 4 4 4 5 6 4 3 3 3 3 3 3 3 2 2 2 3 3 3 2 1
2 1 2 3 3 4 4 4 5 5 5 5 5 5 5 6 10 9 6 3 4 4 4 4 5 5 6 6 7 6 6 5 5 4 4 4 4 4 3 3 3 3 2
1 1 2 3 3 4 5 5 5 5 5 5 5 5 5 7 11 12 9 4 3 4 4 4 4 4 4 4 5 6 6 8 8 6 6 7 6 6 5 5 4 4 4
1 2 2 2 3 4 4 5 5 4 4 4 5 5 5 8 13 12 10 4 3 5 4 4 4 3 3 3 3 3 4 5 6 6 6 7 7 6 7 7 6 4 2
1 2 3 2 3 3 4 4 4 4 5 4 4 5 5 8 12 13 11 3 3 5 5 4 4 4 6 5 2 3 4 5 6 7 8 9 10 10 8 5 4 4 3
3 3 3 2 2 3 4 4 3 3 4 5 5 5 5 6 11 13 12 3 3 4 4 4 6 6 7 6 3 3 5 5 4 5 5 6 6 7 10 8 7 6 4
3 2 3 3 3 3 2 3 3 4 5 5 5 5 5 6 9 12 12 4 3 4 4 4 5 9 9 8 6 4 7 6 4 4 4 4 4 4 5 6 6 6 6
2 2 3 3 3 3 2 3 3 3 4 5 4 5 5 5 7 9 12 9 7 4 4 4 6 11 11 10 7 8 9 6 3 3 3 4 4 4 4 5 6 5 5
1 2 3 3 3 3 3 3 3 3 3 4 4 5 5 5 6 11 12 11 10 5 5 8 11 12 11 8 9 9 7 3 3 3 4 5 4 4 3 3 3 3 2
2 3 3 3 4 4 3 3 3 3 4 4 5 5 5 5 5 5 5 5 6 6 5 7 9 9 7 7 7 5 3 4 4 4 4 4 3 3 3 3 4 4 3
3 3 3 3 3 4 4 3 4 4 5 6 5 5 5 6 8 11 7 5 4 5 6 3 3 4 4 4 4 3 3 3 4 4 3 3 3 4 3 3 4 4 4
3 3 3 3 3 3 4 5 6 7 11 12 11 10 8 10 13 13 13 12 11 10 6 3 4 4 5 5 5 4 4 4 4 4 4 4 4 5 4 3 4 5 5
3 3 3 3 3 3 3 4 6 7 9 11 12 13 12 13 13 13 13 11 10 7 4 4 4 5 5 5 5 5 5 5 4 4 5 5 5 5 5 5 5 5 5
4 4 4 3 3 3 4 4 5 6 7 6 8 12 13 13 12 12 11 8 5 4 3 4 5 5 5 5 5 5 5 5 4 5 5 5 5 5 6 6 6 7 6
4 3 4 3 3 4 4 4 5 6 6 6 6 8 11 10 10 9 8 4 4 5 5 5 5 5 5 5 5 5 5 5 5 5 5 6 5 5 6 6 6 9 7
4 7 6 3 3 4 4 4 5 5 6 6 6 7 6 5 4 5 4 4 5 5 5 5 5 5 5 5 5 5 5 5 5 5 5 5 5 5 6 7 7 8 7
4 5 8 5 4 4 4 5 5 5 6 6 7 8 11 6 6 6 6 5 5 6 6 6 6 5 5 5 5 6 7 6 5 5 5 5 5 5 6 6 7 7 7
3 4 4 4 5 5 5 5 5 6 7 8 7 8 12 7 6 6 6 6 6 6 6 6 6 6 5 5 6 6 6 6 6 5 5 5 5 6 6 6 7 7 7
3 4 4 5 5 7 7 5 6 6 7 7 8 7 7 6 6 7 7 7 6 6 6 6 6 6 6 6 6 6 7 7 6 6 5 6 5 5 6 7 8 9 9
4 5 5 6 6 6 6 6 6 7 7 7 7 7 7 7 7 8 7 7 6 6 6 6 7 8 10 8 6 6 6 7 6 6 7 7 7 6 6 7 8 10 10
5 5 6 6 6 6 6 7 7 7 7 7 7 7 7 7 7 7 7 7 7 7 8 8 7 7 10 11 9 8 10 11 9 6 6 6 7 7 7 8 7 8 9
5 6 6 5 6 6 6 7 7 8 7 7 7 7 7 7 7 7 7 6 7 7 8 7 9 10 11 9 10 11 12 12 11 10 6 6 7 7 7 7 8 8 10
Wind_Direction
28 24 20 3 1 4 360 343 332 326 322 317 316 318 315 314 312 316 297 288 282 283 283 265 263 252 243 244 225 202 197 180 211 259 255 261 231 208 181 187 191 191 197
40 42 24 9 9 6 348 338 343 339 330 322 323 322 315 314 312 311 306 295 283 282 282 280 277 269 251 242 227 221 210 196 195 231 250 237 228 210 190 188 190 188 191
51 44 24 10 2 352 339 337 343 341 337 337 339 331 322 316 312 304 301 287 273 272 274 273 275 267 261 253 237 234 228 215 196 204 230 223 233 208 182 184 184 182 192
60 48 25 359 351 339 339 338 336 337 338 335 334 330 324 318 315 314 300 302 291 282 276 270 270 255 250 252 245 235 228 219 203 202 216 221 220 214 177 180 185 193 197
66 40 3 348 351 346 341 335 334 337 338 327 329 331 327 322 331 332 319 315 305 294 293 287 276 270 260 251 250 234 218 217 208 207 212 211 209 189 198 187 187 178 204
73 19 349 354 351 343 332 333 335 333 330 330 328 325 327 330 333 333 333 318 312 303 297 300 297 287 287 276 265 249 223 213 214 212 218 214 217 204 195 184 173 168 210
55 4 350 348 343 332 334 341 332 326 328 325 320 323 318 313 327 332 326 323 306 296 286 288 300 309 309 302 296 290 266 243 220 210 216 220 213 204 187 188 187 183 196
20 339 330 335 330 331 338 333 323 320 322 313 312 315 314 320 332 334 328 323 316 301 285 273 269 279 293 296 303 309 298 284 254 233 225 228 222 208 195 194 189 174 141
315 304 298 304 318 329 329 320 315 321 320 311 310 314 315 315 330 336 336 319 309 304 300 295 276 266 281 287 277 284 295 297 291 265 248 240 230 214 191 166 163 161 181
267 275 284 289 301 305 302 302 308 314 312 312 316 313 309 309 325 337 339 317 302 302 306 302 291 287 290 292 265 249 266 280 288 295 282 262 243 221 199 189 183 180 174
261 278 299 296 290 285 295 300 309 315 321 316 312 310 309 307 318 332 335 325 297 300 301 298 293 299 297 291 277 249 252 268 269 266 271 268 254 229 212 202 193 186 184
264 288 297 296 295 312 306 304 310 314 321 313 308 310 306 305 310 319 326 324 319 295 287 290 291 298 296 291 279 270 271 276 258 254 259 256 243 232 218 201 196 197 194
262 282 290 296 298 296 291 296 306 311 309 309 301 301 305 306 307 316 319 316 314 303 283 289 299 300 297 288 275 275 275 257 246 249 250 249 242 233 212 190 182 169 145
244 271 283 288 296 299 293 284 287 296 297 302 300 294 296 299 299 303 303 306 304 304 295 296 303 300 288 280 283 274 255 237 236 240 253 255 235 224 213 191 181 168 153
243 265 276 273 277 287 284 271 271 265 265 281 282 275 284 292 288 294 300 297 294 289 301 300 302 300 294 288 282 272 262 253 245 241 248 258 232 215 214 198 178 169 173
242 262 264 266 272 277 286 299 287 279 290 289 289 286 279 276 289 297 299 298 297 299 305 292 290 286 283 279 275 275 266 253 247 238 235 243 232 212 207 200 188 178 177
229 248 258 262 268 273 277 288 301 306 298 292 294 294 289 291 294 299 298 298 295 295 290 278 280 280 281 280 273 267 267 260 246 235 234 237 232 216 205 199 195 184 180
234 250 255 250 256 260 268 277 283 291 302 299 294 292 290 290 291 295 298 304 299 288 268 272 274 277 279 278 277 273 270 267 253 241 235 236 230 218 208 202 197 191 177
236 244 247 248 251 257 267 274 280 282 285 290 294 298 290 287 287 290 297 285 274 274 271 271 273 274 275 276 273 272 272 271 262 247 235 231 229 221 214 206 198 189 177
242 261 268 257 257 264 269 274 279 281 284 287 288 290 290 289 286 286 280 268 262 265 266 268 270 273 272 272 273 270 270 272 271 260 244 233 228 223 214 205 196 188 184
243 260 273 275 258 261 265 268 272 275 277 280 279 280 282 274 265 266 267 264 257 260 264 266 266 267 268 267 269 270 268 266 263 263 252 237 227 226 218 207 196 189 177
239 245 246 253 259 262 265 264 267 271 275 279 282 285 288 274 263 262 261 261 256 253 255 258 264 263 259 260 262 268 268 264 260 260 259 245 231 228 219 205 191 183 174
241 253 257 258 261 269 273 267 267 269 273 276 278 279 281 273 265 262 261 261 258 257 255 253 258 263 261 257 253 254 261 262 252 245 253 254 240 229 216 202 193 184 177
243 252 257 263 264 263 265 269 270 271 272 274 275 273 272 273 269 264 262 261 259 258 256 253 253 257 262 266 262 257 258 260 256 243 239 242 237 229 219 203 196 189 181
247 253 259 261 261 262 266 269 271 272 274 276 276 277 276 276 272 269 267 262 260 259 259 257 256 255 257 262 265 265 266 265 260 254 245 236 224 219 215 203 196 187 180
250 254 259 260 260 261 265 270 273 274 274 276 276 276 276 277 274 272 271 268 263 261 261 259 257 258 260 261 263 264 266 264 258 253 245 231 218 213 210 202 192 186 178